Yunhai-2 02 zu 06 xing

operational
NORAD ID: 59285 Int'l Des: 2024-052 Owner: CASC Country: CN
LEOCIRCULAR

关于 Yunhai-2 02 zu 06 xing

正在加载描述...

实时位置

正在加载3D地球...

即将过境

高度历史

Altitude vs Time

uPlot chart will show altitude changes over time

两行轨道根数

1 59285U 24052F 26062.19629706 .00000044 00000-0 82214-4 0 9997
2 59285 50.0107 292.0627 0005375 167.7823 192.3223 14.27876738104017
Epoch: Mar 3, 2026 • Age: 15 hours

当前状态

高度 803.8 km
速度 7.46 km/s
星下点 41.85°N, 48.86°W
发射日期 Mar 21, 2024
运行时间 1.9 years
类型 other

技术详情

分类 Payload
质量 100.00 kg
干质量 100.00 kg
总质量 100.00 kg
长度 0.50 m
直径 0.20 m
跨度 1.00 m
形状 Box + 2 pan
制造商 DFHS
平台类型 YH-2
阶段状态 In Orbit
所有者/国家 CASC/CN

大型星座

Loading constellations...